GSAT0103 (GALILEO-FM3)

Last updated on Sat Jul 05 2025 00:02:32 GMT+0000 (Coordinated Universal Time)

1 38857U 12055A 25185.04321155 -.00000018 00000+0 00000+0 0 9994 2 38857 55.5975 111.1091 0004350 295.5736 64.3650 1.70473602 79079
UTC large
Height (km)
Speed (km/s)
/
Latitude / Longitude
Inclination (degrees)
Orbital Period (minutes)
Azimuth
Elevation
Range (km)
Doppler Factor

Next 0 passes for location: London (51.5072 / 0.1276)

Sorry there are no passes over London.